Time,TemperatureF,DewpointF,PressureIn,WindDirection,WindDirectionDegrees,WindSpeedMPH,WindSpeedGustMPH,Humidity,HourlyPrecipIn,Conditions,Clouds,dailyrainin,SoftwareType,DateUTC
2013-07-20 00:08:00,79.1,69.0,29.97,SSW,205,4.0,8.0,70,0.00,,,0.00,weatherlink.com 1.10,2013-07-20 05:08:00,
2013-07-20 00:23:00,78.7,69.0,29.97,SSW,197,7.0,9.0,72,0.00,,,0.00,weatherlink.com 1.10,2013-07-20 05:23:00,
2013-07-20 00:38:00,78.5,69.0,29.97,SSW,205,3.0,10.0,73,0.00,,,0.00,weatherlink.com 1.10,2013-07-20 05:38:00,
2013-07-20 00:53:00,78.3,69.0,29.97,South,177,3.0,7.0,73,0.00,,,0.00,weatherlink.com 1.10,2013-07-20 05:53:00,
2013-07-20 01:08:00,77.7,69.0,29.96,SSW,210,6.0,10.0,75,0.00,,,0.00,weatherlink.com 1.10,2013-07-20 06:08:00,
2013-07-20 01:23:00,77.7,69.0,29.97,SSE,149,4.0,9.0,75,0.00,,,0.00,weatherlink.com 1.10,2013-07-20 06:23:00,
2013-07-20 01:38:00,77.4,69.0,29.97,South,174,4.0,9.0,75,0.00,,,0.00,weatherlink.com 1.10,2013-07-20 06:38:00,
2013-07-20 01:53:00,77.2,69.0,29.97,South,181,6.0,10.0,76,0.00,,,0.00,weatherlink.com 1.10,2013-07-20 06:53:00,
2013-07-20 02:08:00,76.8,69.0,29.97,SSW,195,5.0,11.0,77,0.00,,,0.00,weatherlink.com 1.10,2013-07-20 07:08:00,
2013-07-20 02:23:00,76.4,69.0,29.96,SW,226,6.0,10.0,78,0.00,,,0.00,weatherlink.com 1.10,2013-07-20 07:23:00,
2013-07-20 02:38:00,76.1,70.0,29.96,SW,219,8.0,11.0,80,0.00,,,0.00,weatherlink.com 1.10,2013-07-20 07:38:00,
2013-07-20 02:53:00,76.1,70.0,29.96,SSW,201,5.0,9.0,80,0.00,,,0.00,weatherlink.com 1.10,2013-07-20 07:53:00,
2013-07-20 03:09:00,75.9,69.0,29.96,SSW,205,5.0,11.0,80,0.00,,,0.00,weatherlink.com 1.10,2013-07-20 08:09:00,
2013-07-20 03:24:00,75.6,69.0,29.96,SW,232,5.0,9.0,81,0.00,,,0.00,weatherlink.com 1.10,2013-07-20 08:24:00,
2013-07-20 03:40:00,75.4,70.0,29.96,SW,221,4.0,8.0,82,0.00,,,0.00,weatherlink.com 1.10,2013-07-20 08:40:00,
2013-07-20 03:54:00,75.4,70.0,29.96,SSW,195,3.0,6.0,82,0.00,,,0.00,weatherlink.com 1.10,2013-07-20 08:54:00,
2013-07-20 04:09:00,75.2,70.0,29.96,SSW,205,5.0,5.0,83,0.00,,,0.00,weatherlink.com 1.10,2013-07-20 09:09:00,
2013-07-20 04:24:00,75.4,70.0,29.94,SW,224,5.0,7.0,83,0.00,,,0.00,weatherlink.com 1.10,2013-07-20 09:24:00,
2013-07-20 04:39:00,75.1,70.0,29.95,South,187,2.0,6.0,83,0.00,,,0.00,weatherlink.com 1.10,2013-07-20 09:39:00,
2013-07-20 04:54:00,74.8,70.0,29.95,SSW,197,2.0,7.0,84,0.00,,,0.00,weatherlink.com 1.10,2013-07-20 09:54:00,
2013-07-20 05:09:00,74.9,70.0,29.95,SSW,194,2.0,5.0,84,0.00,,,0.00,weatherlink.com 1.10,2013-07-20 10:09:00,
2013-07-20 05:24:00,74.5,70.0,29.95,SSW,206,4.0,6.0,85,0.00,,,0.00,weatherlink.com 1.10,2013-07-20 10:24:00,
2013-07-20 05:39:00,74.5,70.0,29.95,SW,215,4.0,6.0,86,0.00,,,0.00,weatherlink.com 1.10,2013-07-20 10:39:00,
2013-07-20 05:54:00,74.5,70.0,29.95,SSW,208,4.0,6.0,86,0.00,,,0.00,weatherlink.com 1.10,2013-07-20 10:54:00,
2013-07-20 06:09:00,74.6,70.0,29.95,South,183,2.0,5.0,86,0.00,,,0.00,weatherlink.com 1.10,2013-07-20 11:09:00,
2013-07-20 06:24:00,74.6,70.0,29.95,SSW,198,1.0,5.0,86,0.00,,,0.00,weatherlink.com 1.10,2013-07-20 11:24:00,
2013-07-20 06:39:00,74.7,70.0,29.96,South,170,2.0,4.0,86,0.00,,,0.00,weatherlink.com 1.10,2013-07-20 11:39:00,
2013-07-20 06:54:00,74.8,70.0,29.95,SSE,155,2.0,5.0,86,0.00,,,0.00,weatherlink.com 1.10,2013-07-20 11:54:00,
2013-07-20 07:09:00,75.1,71.0,29.95,SSW,193,2.0,5.0,86,0.00,,,0.00,weatherlink.com 1.10,2013-07-20 12:09:00,
2013-07-20 07:24:00,75.3,71.0,29.95,SSW,200,1.0,4.0,86,0.00,,,0.00,weatherlink.com 1.10,2013-07-20 12:24:00,
2013-07-20 07:39:00,75.7,71.0,29.95,SSE,147,2.0,4.0,85,0.00,,,0.00,weatherlink.com 1.10,2013-07-20 12:39:00,
2013-07-20 07:54:00,76.0,71.0,29.95,SW,218,5.0,5.0,85,0.00,,,0.00,weatherlink.com 1.10,2013-07-20 12:54:00,
2013-07-20 08:09:00,76.0,71.0,29.95,SSE,167,3.0,6.0,84,0.00,,,0.00,weatherlink.com 1.10,2013-07-20 13:09:00,
2013-07-20 08:24:00,76.8,71.0,29.95,SSW,204,3.0,6.0,83,0.00,,,0.00,weatherlink.com 1.10,2013-07-20 13:24:00,
2013-07-20 08:39:00,77.9,72.0,29.95,SW,218,1.0,5.0,81,0.00,,,0.00,weatherlink.com 1.10,2013-07-20 13:39:00,
2013-07-20 08:54:00,78.8,71.0,29.95,SW,219,3.0,7.0,78,0.00,,,0.00,weatherlink.com 1.10,2013-07-20 13:54:00,
2013-07-20 09:09:00,79.6,72.0,29.94,West,273,4.0,7.0,77,0.00,,,0.00,weatherlink.com 1.10,2013-07-20 14:09:00,
2013-07-20 09:24:00,80.5,72.0,29.94,SW,229,6.0,7.0,75,0.00,,,0.00,weatherlink.com 1.10,2013-07-20 14:24:00,
2013-07-20 09:39:00,81.7,72.0,29.94,SW,225,5.0,8.0,73,0.00,,,0.00,weatherlink.com 1.10,2013-07-20 14:39:00,
2013-07-20 09:54:00,82.5,72.0,29.94,West,262,5.0,6.0,71,0.00,,,0.00,weatherlink.com 1.10,2013-07-20 14:54:00,
2013-07-20 10:09:00,83.1,72.0,29.94,West,264,5.0,8.0,70,0.00,,,0.00,weatherlink.com 1.10,2013-07-20 15:09:00,
2013-07-20 10:24:00,84.4,72.0,29.94,West,269,3.0,9.0,67,0.00,,,0.00,weatherlink.com 1.10,2013-07-20 15:24:00,
2013-07-20 10:39:00,85.3,73.0,29.94,West,269,3.0,7.0,66,0.00,,,0.00,weatherlink.com 1.10,2013-07-20 15:39:00,
2013-07-20 10:54:00,85.8,72.0,29.94,WNW,294,3.0,9.0,64,0.00,,,0.00,weatherlink.com 1.10,2013-07-20 15:54:00,
2013-07-20 11:09:00,87.2,72.0,29.94,WNW,283,4.0,7.0,61,0.00,,,0.00,weatherlink.com 1.10,2013-07-20 16:09:00,
2013-07-20 11:24:00,87.9,72.0,29.94,WNW,287,1.0,5.0,60,0.00,,,0.00,weatherlink.com 1.10,2013-07-20 16:24:00,
2013-07-20 11:39:00,89.3,72.0,29.93,SSW,200,3.0,6.0,57,0.00,,,0.00,weatherlink.com 1.10,2013-07-20 16:39:00,
2013-07-20 11:54:00,89.7,72.0,29.93,SW,233,4.0,5.0,57,0.00,,,0.00,weatherlink.com 1.10,2013-07-20 16:54:00,
2013-07-20 12:10:00,90.6,71.0,29.93,West,268,0.0,7.0,52,0.00,,,0.00,weatherlink.com 1.10,2013-07-20 17:10:00,
2013-07-20 12:25:00,91.8,71.0,29.93,SW,218,6.0,8.0,50,0.00,,,0.00,weatherlink.com 1.10,2013-07-20 17:25:00,
2013-07-20 12:40:00,92.8,70.0,29.92,SSE,157,6.0,8.0,48,0.00,,,0.00,weatherlink.com 1.10,2013-07-20 17:40:00,
2013-07-20 12:55:00,93.1,69.0,29.92,SW,216,6.0,10.0,46,0.00,,,0.00,weatherlink.com 1.10,2013-07-20 17:55:00,
2013-07-20 13:10:00,93.2,70.0,29.91,ENE,67,3.0,10.0,47,0.00,,,0.00,weatherlink.com 1.10,2013-07-20 18:10:00,
2013-07-20 13:25:00,92.7,68.0,29.91,SE,124,2.0,13.0,45,0.00,,,0.00,weatherlink.com 1.10,2013-07-20 18:25:00,
2013-07-20 13:40:00,92.7,69.0,29.90,SSW,194,5.0,10.0,46,0.00,,,0.00,weatherlink.com 1.10,2013-07-20 18:40:00,
2013-07-20 13:55:00,93.7,69.0,29.90,East,86,5.0,10.0,44,0.00,,,0.00,weatherlink.com 1.10,2013-07-20 18:55:00,
2013-07-20 14:25:00,94.9,68.0,29.89,SE,138,2.0,8.0,42,0.00,,,0.00,weatherlink.com 1.10,2013-07-20 19:25:00,
2013-07-20 14:40:00,94.3,67.0,29.88,NE,46,0.0,8.0,40,0.00,,,0.00,weatherlink.com 1.10,2013-07-20 19:40:00,
2013-07-20 14:56:00,94.2,67.0,29.88,North,10,2.0,5.0,41,0.00,,,0.00,weatherlink.com 1.10,2013-07-20 19:56:00,
2013-07-20 15:10:00,94.4,67.0,29.87,WNW,300,0.0,5.0,41,0.00,,,0.00,weatherlink.com 1.10,2013-07-20 20:10:00,
2013-07-20 15:25:00,96.3,68.0,29.86,NNW,343,6.0,6.0,40,0.00,,,0.00,weatherlink.com 1.10,2013-07-20 20:25:00,
2013-07-20 15:40:00,94.3,69.0,29.86,East,87,4.0,8.0,43,0.00,,,0.00,weatherlink.com 1.10,2013-07-20 20:40:00,
2013-07-20 15:55:00,94.3,67.0,29.86,ESE,108,5.0,9.0,40,0.00,,,0.00,weatherlink.com 1.10,2013-07-20 20:55:00,
2013-07-20 16:10:00,93.9,70.0,29.85,SE,127,7.0,10.0,46,0.00,,,0.00,weatherlink.com 1.10,2013-07-20 21:10:00,
2013-07-20 16:25:00,93.1,69.0,29.85,ESE,110,4.0,10.0,46,0.00,,,0.00,weatherlink.com 1.10,2013-07-20 21:25:00,
2013-07-20 16:40:00,92.0,69.0,29.84,SE,129,10.0,13.0,47,0.00,,,0.00,weatherlink.com 1.10,2013-07-20 21:40:00,
2013-07-20 16:55:00,90.4,70.0,29.86,SE,145,5.0,12.0,52,0.00,,,0.00,weatherlink.com 1.10,2013-07-20 21:55:00,
2013-07-20 17:10:00,87.3,69.0,29.86,SSE,148,11.0,19.0,55,0.00,,,0.00,weatherlink.com 1.10,2013-07-20 22:10:00,
2013-07-20 17:25:00,85.9,68.0,29.85,SSE,148,3.0,13.0,55,0.00,,,0.00,weatherlink.com 1.10,2013-07-20 22:25:00,
2013-07-20 17:40:00,85.4,69.0,29.86,SE,128,4.0,9.0,58,0.00,,,0.00,weatherlink.com 1.10,2013-07-20 22:40:00,
2013-07-20 17:55:00,84.7,69.0,29.86,ESE,105,1.0,6.0,60,0.00,,,0.00,weatherlink.com 1.10,2013-07-20 22:55:00,
2013-07-20 18:10:00,85.0,68.0,29.86,NNE,32,1.0,6.0,56,0.00,,,0.00,weatherlink.com 1.10,2013-07-20 23:10:00,
2013-07-20 18:25:00,84.6,69.0,29.84,East,79,1.0,4.0,60,0.00,,,0.00,weatherlink.com 1.10,2013-07-20 23:25:00,
2013-07-20 18:40:00,85.8,70.0,29.85,ENE,75,1.0,2.0,59,0.00,,,0.00,weatherlink.com 1.10,2013-07-20 23:40:00,
2013-07-20 19:10:00,87.1,70.0,29.83,ENE,78,3.0,7.0,58,0.00,,,0.00,weatherlink.com 1.10,2013-07-21 00:10:00,
2013-07-20 19:25:00,86.8,70.0,29.84,East,94,2.0,6.0,58,0.00,,,0.00,weatherlink.com 1.10,2013-07-21 00:25:00,
2013-07-20 19:40:00,86.4,71.0,29.84,SE,131,5.0,7.0,60,0.00,,,0.00,weatherlink.com 1.10,2013-07-21 00:40:00,
2013-07-20 19:55:00,86.0,71.0,29.85,SSE,159,3.0,6.0,62,0.00,,,0.00,weatherlink.com 1.10,2013-07-21 00:55:00,
2013-07-20 20:10:00,85.9,71.0,29.86,SW,217,7.0,8.0,62,0.00,,,0.00,weatherlink.com 1.10,2013-07-21 01:10:00,
2013-07-20 20:25:00,85.3,70.0,29.86,SSW,197,3.0,8.0,60,0.00,,,0.00,weatherlink.com 1.10,2013-07-21 01:25:00,
2013-07-20 20:40:00,84.9,69.0,29.86,South,170,3.0,6.0,60,0.00,,,0.00,weatherlink.com 1.10,2013-07-21 01:40:00,
2013-07-20 20:55:00,84.9,69.0,29.86,ESE,108,3.0,4.0,59,0.00,,,0.00,weatherlink.com 1.10,2013-07-21 01:55:00,
2013-07-20 21:10:00,84.3,69.0,29.87,South,188,2.0,6.0,60,0.00,,,0.00,weatherlink.com 1.10,2013-07-21 02:10:00,
2013-07-20 21:25:00,83.9,69.0,29.87,South,185,6.0,7.0,62,0.00,,,0.00,weatherlink.com 1.10,2013-07-21 02:25:00,
2013-07-20 21:40:00,83.1,70.0,29.88,SSW,200,4.0,8.0,64,0.00,,,0.00,weatherlink.com 1.10,2013-07-21 02:40:00,
2013-07-20 22:11:00,82.2,70.0,29.89,SE,131,6.0,8.0,66,0.00,,,0.00,weatherlink.com 1.10,2013-07-21 03:11:00,
2013-07-20 22:26:00,81.4,70.0,29.89,South,186,8.0,10.0,69,0.00,,,0.00,weatherlink.com 1.10,2013-07-21 03:26:00,
2013-07-20 22:41:00,80.7,71.0,29.89,SE,135,5.0,7.0,72,0.00,,,0.00,weatherlink.com 1.10,2013-07-21 03:41:00,
2013-07-20 22:56:00,80.1,72.0,29.90,SSE,158,5.0,8.0,75,0.00,,,0.00,weatherlink.com 1.10,2013-07-21 03:56:00,
2013-07-20 23:11:00,79.8,72.0,29.89,SSE,161,3.0,8.0,76,0.00,,,0.00,weatherlink.com 1.10,2013-07-21 04:11:00,
2013-07-20 23:26:00,79.6,72.0,29.90,SE,140,5.0,5.0,77,0.00,,,0.00,weatherlink.com 1.10,2013-07-21 04:26:00,
2013-07-20 23:41:00,79.5,72.0,29.90,SSE,163,3.0,9.0,78,0.00,,,0.00,weatherlink.com 1.10,2013-07-21 04:41:00,
2013-07-20 23:56:00,79.3,72.0,29.90,SSE,148,7.0,8.0,78,0.00,,,0.00,weatherlink.com 1.10,2013-07-21 04:56:00,